Overview Statistics Trail Chart Weather Telemetry Raw packets
 

This is the latest recevied weather packets stored in our database for station/object KN6WGU. If no packets are shown the sender has not sent any weather packets the latest 10 day(s).

<< 9 10 11 12 13 14 15 >>
Time Temp. Humidity Pressure Rain* Wind** Luminosity Snow
1788550617 25.56° C 84% 1007.2 hPa 0 mm - 348 W/m² -
1788550314 25.56° C 87% 1007.3 hPa 0 mm - 295 W/m² -
1788550013 25° C 88% 1007.7 hPa 0 mm - 221 W/m² -
1788549709 25° C 89% 1008 hPa 0 mm - 242 W/m² -
1788549405 24.44° C 90% 1007.9 hPa 0 mm - 310 W/m² -
1788549101 24.44° C 90% 1007.7 hPa 0 mm - 272 W/m² -
1788548798 24.44° C 91% 1008 hPa 0 mm - 299 W/m² -
1788548493 24.44° C 92% 1007.8 hPa 0 mm - 242 W/m² -
1788548190 23.89° C 92% 1007.9 hPa 0 mm - 264 W/m² -
1788547907 23.89° C 93% 1008 hPa 0 mm - 283 W/m² -
1788547588 23.89° C 94% 1008 hPa 0 mm - 337 W/m² -
1788547284 23.33° C 96% 1007.8 hPa 0 mm - 378 W/m² -
1788546980 23.33° C 97% 1007.8 hPa 0 mm - 254 W/m² -
1788546674 23.33° C 98% 1007.7 hPa 0 mm - 209 W/m² -
1788546370 22.78° C 98% 1007.7 hPa 0 mm - 170 W/m² -
1788546064 22.78° C 97% 1007.4 hPa 0 mm - 144 W/m² -
1788545761 22.78° C 98% 1007.9 hPa 0 mm - 111 W/m² -
1788545460 22.78° C 98% 1007.6 hPa 0 mm - 94 W/m² -
1788545154 22.78° C 98% 1007.5 hPa 0 mm - 88 W/m² -
1788544850 22.78° C 97% 1008 hPa 0 mm - 73 W/m² -
1788544543 22.22° C 97% 1008.4 hPa 1.78 mm - 67 W/m² -
1788544242 22.22° C 97% 1008.2 hPa 1.78 mm - 54 W/m² -
1788543937 22.78° C 97% 1009.1 hPa 0 mm - 47 W/m² -
1788543634 22.78° C 97% 1009.5 hPa 0 mm - 41 W/m² -
1788543334 22.78° C 97% 1010 hPa 1.27 mm - 37 W/m² -

* Rain latest hour (hover to see other rain measurements)
** Current wind speed in m/s (hover to see current wind gust speed)